| time (UTC) | temp C | wind direction | speed KPH | gust KPH | rain 1hr cm | rain 24hr cm | rain mn cm | humidity % | barometer mb |
| 20260902184730 | 23 | 87 | 20.9 | 32.2 | 1.07 | 1.27 | 1.27 | 92 | 1015.5 |
| 20260902184229 | 23 | 90 | 22.5 | 33.8 | 1.09 | 1.27 | 1.27 | 93 | 1015.6 |
| 20260902183729 | 23 | 77 | 16.1 | 40.2 | 1.12 | 1.27 | 1.27 | 93 | 1015.8 |
| 20260902183229 | 23 | 73 | 17.7 | 45.1 | 1.12 | 1.27 | 1.24 | 93 | 1015.6 |
| 20260902182728 | 23 | 59 | 17.7 | 45.1 | 1.12 | 1.24 | 1.22 | 93 | 1015.5 |
| 20260902182228 | 24 | 50 | 22.5 | 33.8 | 1.07 | 1.19 | 1.22 | 93 | 1015.7 |
| 20260902181728 | 24 | 87 | 12.9 | 30.6 | 0.99 | 1.12 | 1.12 | 93 | 1015.5 |
| 20260902181229 | 24 | 70 | 8.0 | 30.6 | 0.86 | 0.99 | 0.99 | 92 | 1015.9 |
| 20260902180729 | 24 | 55 | 9.7 | 53.1 | 0.76 | 0.89 | 0.89 | 92 | 1015.5 |
| 20260902180231 | 24 | 135 | 12.9 | 53.1 | 0.66 | 0.79 | 0.79 | 92 | 1015.6 |
| 20260902175737 | 24 | 84 | 17.7 | 27.4 | 0.25 | 0.38 | 0.38 | 92 | 1015.4 |
| 20260902175730 | 24 | 116 | 11.3 | 32.2 | 0.51 | 0.64 | 0.61 | 92 | 1015.6 |
| 20260902175001 | 25 | 91 | 19.3 | 27.4 | 0.08 | 0.20 | 0.23 | 91 | 1015.3 |
| 20260902174229 | 25 | 75 | 4.8 | 25.7 | 0.05 | 0.18 | 0.18 | 91 | 1015.1 |
| 20260902173729 | 25 | 84 | 9.7 | 32.2 | 0.03 | 0.15 | 0.15 | 91 | 1015.2 |
| 20260902173500 | 25 | 113 | 11.3 | 32.2 | 0.00 | 0.15 | 0.13 | 91 | 1015.4 |
| 20260902173000 | 25 | 71 | 9.7 | 27.4 | 0.00 | 0.13 | 0.13 | 91 | 1015.2 |
| 20260902172501 | 25 | 77 | 20.9 | 30.6 | 0.00 | 0.13 | 0.13 | 91 | 1015.1 |
| 20260902171731 | 25 | 119 | 12.9 | 30.6 | 0.00 | 0.13 | 0.13 | 91 | 1015.3 |
| 20260902171229 | 25 | 85 | 8.0 | 38.6 | 0.00 | 0.13 | 0.13 | 91 | 1015.1 |
| 20260902171000 | 25 | 98 | 17.7 | 38.6 | 0.00 | 0.13 | 0.13 | 91 | 1014.8 |
| 20260902170228 | 25 | 103 | 14.5 | 30.6 | 0.00 | 0.13 | 0.13 | 91 | 1014.9 |
| 20260902165729 | 25 | 107 | 12.9 | 32.2 | 0.00 | 0.13 | 0.13 | 91 | 1015.0 |
| 20260902165229 | 25 | 78 | 14.5 | 32.2 | 0.00 | 0.13 | 0.13 | 91 | 1014.9 |
| 20260902164959 | 25 | 98 | 20.9 | 27.4 | 0.00 | 0.13 | 0.13 | 91 | 1014.9 |
| 20260902164229 | 25 | 110 | 17.7 | 30.6 | 0.00 | 0.13 | 0.13 | 91 | 1014.5 |
| 20260902163729 | 25 | 70 | 17.7 | 37.0 | 0.00 | 0.13 | 0.13 | 91 | 1014.7 |
| 20260902163500 | 25 | 87 | 9.7 | 37.0 | 0.03 | 0.13 | 0.13 | 91 | 1014.6 |
| 20260902162729 | 25 | 96 | 16.1 | 37.0 | 0.03 | 0.13 | 0.13 | 91 | 1014.6 |
| 20260902162228 | 25 | 57 | 16.1 | 38.6 | 0.05 | 0.13 | 0.13 | 91 | 1014.6 |
| 20260902161729 | 25 | 56 | 9.7 | 38.6 | 0.08 | 0.13 | 0.13 | 91 | 1014.5 |
| 20260902161230 | 24 | 76 | 17.7 | 33.8 | 0.08 | 0.13 | 0.13 | 92 | 1014.6 |
| 20260902161000 | 24 | 73 | 19.3 | 32.2 | 0.08 | 0.13 | 0.13 | 92 | 1014.5 |
| 20260902160459 | 24 | 58 | 16.1 | 27.4 | 0.08 | 0.13 | 0.13 | 92 | 1014.5 |
| 20260902160000 | 24 | 44 | 14.5 | 27.4 | 0.08 | 0.13 | 0.13 | 92 | 1014.3 |
| 20260902155229 | 24 | 77 | 8.0 | 32.2 | 0.08 | 0.13 | 0.13 | 92 | 1014.4 |
| 20260902154735 | 24 | 112 | 16.1 | 32.2 | 0.08 | 0.13 | 0.13 | 92 | 1014.5 |
| 20260902154729 | 24 | 113 | 12.9 | 32.2 | 0.08 | 0.13 | 0.13 | 92 | 1014.2 |
| 20260902153734 | 24 | 104 | 6.4 | 33.8 | 0.10 | 0.10 | 0.10 | 92 | 1014.3 |
| 20260902153728 | 24 | 72 | 16.1 | 33.8 | 0.08 | 0.13 | 0.13 | 92 | 1014.4 |
| 20260902152730 | 24 | 47 | 22.5 | 41.8 | 0.08 | 0.10 | 0.10 | 92 | 1014.0 |
| 20260902152230 | 24 | 99 | 17.7 | 41.8 | 0.05 | 0.05 | 0.05 | 91 | 1014.2 |
| 20260902152003 | 24 | 60 | 24.1 | 37.0 | 0.03 | 0.05 | 0.05 | 91 | 1014.0 |
| 20260902151229 | 24 | 77 | 12.9 | 30.6 | 0.03 | 0.05 | 0.05 | 91 | 1013.8 |
| 20260902150729 | 24 | 60 | 12.9 | 30.6 | 0.05 | 0.05 | 0.05 | 92 | 1013.9 |
| 20260902150500 | 24 | 77 | 17.7 | 25.7 | 0.05 | 0.05 | 0.05 | 92 | 1013.6 |
| 20260902145732 | 24 | 98 | 9.7 | 25.7 | 0.05 | 0.05 | 0.05 | 91 | 1014.0 |
| 20260902145500 | 24 | 81 | 16.1 | 38.6 | 0.05 | 0.05 | 0.05 | 91 | 1014.1 |
| 20260902144729 | 24 | 84 | 14.5 | 38.6 | 0.05 | 0.05 | 0.05 | 91 | 1014.0 |
| 20260902144459 | 24 | 55 | 17.7 | 38.6 | 0.05 | 0.05 | 0.05 | 91 | 1014.0 |
| 20260902144336 | 24 | 128 | 17.7 | 32.2 | 0.05 | 0.05 | 0.05 | 91 | 1013.8 |
| 20260902143500 | 24 | 113 | 6.4 | 32.2 | 0.00 | 0.03 | 0.00 | 91 | 1014.0 |
| 20260902142729 | 24 | 58 | 12.9 | 38.6 | 0.00 | 0.03 | 0.00 | 91 | 1014.0 |
| 20260902142240 | 24 | 133 | 14.5 | 32.2 | 0.00 | 0.03 | 0.00 | 90 | 1014.1 |
| 20260902142234 | 24 | 106 | 16.1 | 38.6 | 0.00 | 0.03 | 0.00 | 91 | 1014.1 |
| 20260902141818 | 24 | 133 | 14.5 | 32.2 | 0.00 | 0.03 | 0.00 | 90 | 1014.1 |
| 20260902141500 | 24 | 66 | 9.7 | 33.8 | 0.00 | 0.03 | 0.00 | 90 | 1013.9 |
| 20260902140732 | 24 | 62 | 12.9 | 45.1 | 0.00 | 0.00 | 0.00 | 89 | 1014.1 |
| 20260902140230 | 25 | 99 | 22.5 | 45.1 | 0.00 | 0.00 | 0.00 | 88 | 1014.1 |
| 20260902135729 | 25 | 58 | 17.7 | 38.6 | 0.00 | 0.00 | 0.00 | 88 | 1014.2 |
| 20260902135229 | 25 | 61 | 14.5 | 38.6 | 0.00 | 0.00 | 0.00 | 87 | 1014.3 |
| 20260902134729 | 25 | 101 | 11.3 | 30.6 | 0.00 | 0.00 | 0.00 | 87 | 1014.2 |
| 20260902134459 | 25 | 26 | 8.0 | 30.6 | 0.00 | 0.00 | 0.00 | 86 | 1014.0 |
| 20260902133959 | 25 | 128 | 17.7 | 37.0 | 0.00 | 0.00 | 0.00 | 87 | 1014.0 |
| 20260902133500 | 25 | 82 | 16.1 | 37.0 | 0.00 | 0.00 | 0.00 | 87 | 1014.0 |
| 20260902132729 | 25 | 46 | 20.9 | 32.2 | 0.00 | 0.00 | 0.00 | 87 | 1013.9 |
| 20260902132228 | 25 | 56 | 16.1 | 30.6 | 0.00 | 0.00 | 0.00 | 87 | 1014.0 |
| 20260902131948 | 25 | 58 | 12.9 | 30.6 | 0.00 | 0.00 | 0.00 | 87 | 1013.9 |
| 20260902131217 | 25 | 79 | 9.7 | 25.7 | 0.00 | 0.00 | 0.00 | 87 | 1014.0 |
| 20260902130717 | 25 | 83 | 8.0 | 25.7 | 0.00 | 0.00 | 0.00 | 87 | 1014.0 |
| 20260902130217 | 25 | 90 | 12.9 | 32.2 | 0.00 | 0.00 | 0.00 | 87 | 1014.1 |
| 20260902125948 | 25 | 73 | 19.3 | 32.2 | 0.00 | 0.00 | 0.00 | 87 | 1014.2 |
| 20260902125219 | 25 | 78 | 17.7 | 33.8 | 0.00 | 0.00 | 0.00 | 86 | 1014.1 |
| 20260902124718 | 25 | 73 | 6.4 | 33.8 | 0.00 | 0.00 | 0.00 | 86 | 1014.2 |
| 20260902124217 | 25 | 85 | 17.7 | 22.5 | 0.00 | 0.00 | 0.00 | 86 | 1014.3 |
| 20260902123705 | 25 | 30 | 6.4 | 27.4 | 0.00 | 0.00 | 0.00 | 86 | 1014.5 |
| 20260902123204 | 25 | 103 | 12.9 | 27.4 | 0.00 | 0.00 | 0.00 | 86 | 1014.4 |
| 20260902122705 | 25 | 97 | 17.7 | 27.4 | 0.00 | 0.00 | 0.00 | 87 | 1014.3 |
| 20260902122204 | 25 | 30 | 9.7 | 24.1 | 0.00 | 0.00 | 0.00 | 87 | 1014.4 |
| 20260902121704 | 25 | 47 | 11.3 | 25.7 | 0.00 | 0.00 | 0.00 | 87 | 1014.5 |
| 20260902121205 | 25 | 97 | 14.5 | 27.4 | 0.00 | 0.00 | 0.00 | 87 | 1014.7 |
| 20260902120936 | 25 | 79 | 14.5 | 32.2 | 0.00 | 0.00 | 0.00 | 87 | 1014.6 |
| 20260902120205 | 25 | 95 | 12.9 | 32.2 | 0.00 | 0.00 | 0.00 | 86 | 1014.5 |
| 20260902115705 | 25 | 73 | 12.9 | 33.8 | 0.00 | 0.00 | 0.00 | 87 | 1014.7 |
| 20260902115437 | 25 | 73 | 9.7 | 33.8 | 0.00 | 0.00 | 0.00 | 87 | 1014.5 |
| 20260902114937 | 25 | 69 | 20.9 | 30.6 | 0.00 | 0.00 | 0.00 | 87 | 1014.7 |
| 20260902114204 | 25 | 79 | 1.6 | 25.7 | 0.00 | 0.00 | 0.00 | 87 | 1014.7 |
| 20260902113704 | 25 | 89 | 17.7 | 25.7 | 0.00 | 0.00 | 0.00 | 88 | 1014.6 |
| 20260902113205 | 25 | 70 | 11.3 | 24.1 | 0.00 | 0.00 | 0.00 | 88 | 1014.9 |
| 20260902112704 | 25 | 84 | 14.5 | 27.4 | 0.00 | 0.00 | 0.00 | 88 | 1014.9 |
| 20260902112435 | 24 | 109 | 14.5 | 33.8 | 0.00 | 0.00 | 0.00 | 87 | 1014.7 |
| 20260902111704 | 25 | 119 | 20.9 | 33.8 | 0.00 | 0.00 | 0.00 | 87 | 1014.9 |
| 20260902111205 | 25 | 88 | 11.3 | 40.2 | 0.00 | 0.00 | 0.00 | 86 | 1015.1 |
| 20260902110705 | 25 | 95 | 12.9 | 40.2 | 0.00 | 0.00 | 0.00 | 85 | 1015.1 |
| 20260902110204 | 26 | 94 | 16.1 | 27.4 | 0.00 | 0.00 | 0.00 | 85 | 1015.0 |
| 20260902105705 | 26 | 76 | 9.7 | 27.4 | 0.00 | 0.00 | 0.00 | 85 | 1015.1 |
| 20260902105204 | 25 | 58 | 16.1 | 27.4 | 0.00 | 0.00 | 0.00 | 84 | 1015.1 |
| 20260902104936 | 25 | 94 | 19.3 | 27.4 | 0.00 | 0.00 | 0.00 | 83 | 1015.2 |
| 20260902104205 | 25 | 128 | 11.3 | 27.4 | 0.00 | 0.00 | 0.00 | 83 | 1015.1 |
| 20260902103704 | 25 | 85 | 12.9 | 33.8 | 0.00 | 0.00 | 0.00 | 84 | 1015.0 |
| 20260902103204 | 25 | 69 | 14.5 | 33.8 | 0.00 | 0.00 | 0.00 | 83 | 1015.4 |
| 20260902102704 | 25 | 64 | 12.9 | 27.4 | 0.00 | 0.00 | 0.00 | 84 | 1015.2 |
| 20260902102204 | 25 | 93 | 8.0 | 24.1 | 0.00 | 0.00 | 0.00 | 84 | 1015.4 |
| 20260902101936 | 25 | 96 | 9.7 | 30.6 | 0.00 | 0.00 | 0.00 | 85 | 1015.3 |
| 20260902101205 | 25 | 72 | 12.9 | 30.6 | 0.00 | 0.00 | 0.00 | 84 | 1015.3 |
| 20260902100704 | 25 | 87 | 14.5 | 27.4 | 0.00 | 0.00 | 0.00 | 84 | 1015.2 |
| 20260902100436 | 25 | 80 | 6.4 | 25.7 | 0.00 | 0.00 | 0.00 | 84 | 1015.1 |
| 20260902095705 | 25 | 82 | 9.7 | 27.4 | 0.00 | 0.00 | 0.00 | 84 | 1015.5 |
| 20260902095205 | 25 | 119 | 8.0 | 38.6 | 0.00 | 0.00 | 0.00 | 84 | 1015.2 |
| 20260902094653 | 25 | 101 | 16.1 | 38.6 | 0.00 | 0.00 | 0.00 | 83 | 1015.4 |
| 20260902094152 | 25 | 77 | 9.7 | 25.7 | 0.00 | 0.00 | 0.00 | 84 | 1015.2 |
| 20260902093652 | 25 | 91 | 14.5 | 25.7 | 0.00 | 0.00 | 0.00 | 83 | 1015.3 |
| 20260902093153 | 25 | 105 | 16.1 | 27.4 | 0.00 | 0.00 | 0.00 | 83 | 1015.6 |
| 20260902092653 | 25 | 87 | 12.9 | 27.4 | 0.00 | 0.00 | 0.00 | 83 | 1015.7 |
| 20260902092152 | 25 | 101 | 9.7 | 27.4 | 0.00 | 0.00 | 0.00 | 82 | 1015.6 |
| 20260902091654 | 25 | 101 | 8.0 | 24.1 | 0.00 | 0.00 | 0.00 | 83 | 1015.6 |
| 20260902091153 | 25 | 93 | 9.7 | 25.7 | 0.00 | 0.00 | 0.00 | 83 | 1015.8 |
| 20260902090653 | 25 | 125 | 16.1 | 25.7 | 0.00 | 0.00 | 0.00 | 83 | 1015.7 |
| 20260902090424 | 25 | 75 | 6.4 | 27.4 | 0.00 | 0.00 | 0.00 | 83 | 1015.9 |
| 20260902085653 | 25 | 109 | 9.7 | 32.2 | 0.00 | 0.00 | 0.00 | 83 | 1015.9 |
| 20260902085155 | 25 | 94 | 12.9 | 33.8 | 0.00 | 0.00 | 0.00 | 83 | 1015.8 |
| 20260902084653 | 25 | 79 | 16.1 | 33.8 | 0.00 | 0.00 | 0.00 | 82 | 1015.8 |
| 20260902084152 | 25 | 106 | 19.3 | 30.6 | 0.00 | 0.00 | 0.00 | 83 | 1016.0 |
| 20260902083652 | 25 | 118 | 17.7 | 25.7 | 0.00 | 0.00 | 0.00 | 83 | 1015.9 |
| 20260902083152 | 25 | 88 | 14.5 | 25.7 | 0.00 | 0.00 | 0.00 | 83 | 1015.7 |
| 20260902082655 | 25 | 54 | 6.4 | 27.4 | 0.00 | 0.00 | 0.00 | 84 | 1015.7 |
| 20260902082153 | 25 | 115 | 14.5 | 27.4 | 0.00 | 0.00 | 0.00 | 84 | 1015.8 |
| 20260902081653 | 25 | 59 | 12.9 | 33.8 | 0.00 | 0.00 | 0.00 | 83 | 1016.0 |
| 20260902081424 | 25 | 101 | 20.9 | 33.8 | 0.00 | 0.00 | 0.00 | 84 | 1015.9 |
| 20260902081301 | 25 | 87 | 11.3 | 30.6 | 0.00 | 0.00 | 0.00 | 84 | 1016.2 |
| 20260902080425 | 25 | 102 | 16.1 | 30.6 | 0.00 | 0.00 | 0.00 | 84 | 1015.9 |
| 20260902075653 | 25 | 52 | 11.3 | 30.6 | 0.00 | 0.00 | 0.00 | 85 | 1016.0 |
| 20260902075152 | 25 | 82 | 11.3 | 30.6 | 0.00 | 0.00 | 0.00 | 85 | 1016.2 |
| 20260902074651 | 25 | 115 | 14.5 | 25.7 | 0.00 | 0.00 | 0.00 | 86 | 1016.1 |
| 20260902074157 | 25 | 69 | 16.1 | 30.6 | 0.00 | 0.00 | 0.00 | 85 | 1016.2 |
| 20260902074151 | 25 | 77 | 14.5 | 30.6 | 0.00 | 0.00 | 0.00 | 85 | 1015.9 |
| 20260902073149 | 25 | 77 | 17.7 | 30.6 | 0.00 | 0.00 | 0.00 | 85 | 1016.2 |
| 20260902072648 | 25 | 105 | 14.5 | 25.7 | 0.00 | 0.00 | 0.00 | 84 | 1015.8 |
| 20260902072417 | 25 | 65 | 14.5 | 30.6 | 0.00 | 0.00 | 0.00 | 84 | 1015.8 |
| 20260902071645 | 25 | 51 | 12.9 | 30.6 | 0.00 | 0.00 | 0.00 | 84 | 1016.0 |
| 20260902071146 | 25 | 84 | 8.0 | 27.4 | 0.00 | 0.00 | 0.00 | 84 | 1015.9 |
| 20260902070646 | 25 | 95 | 12.9 | 25.7 | 0.00 | 0.00 | 0.00 | 84 | 1016.0 |
| 20260902070146 | 25 | 92 | 16.1 | 30.6 | 0.00 | 0.00 | 0.00 | 85 | 1016.0 |
| 20260902065645 | 25 | 114 | 8.0 | 32.2 | 0.00 | 0.00 | 0.00 | 84 | 1015.4 |
| 20260902065417 | 25 | 75 | 22.5 | 32.2 | 0.00 | 0.00 | 0.00 | 85 | 1015.7 |
| 20260902064645 | 25 | 94 | 8.0 | 27.4 | 0.00 | 0.00 | 0.00 | 86 | 1015.7 |
| 20260902064151 | 25 | 84 | 9.7 | 27.4 | 0.00 | 0.00 | 0.00 | 85 | 1015.6 |
| 20260902064145 | 25 | 116 | 6.4 | 25.7 | 0.00 | 0.00 | 0.00 | 85 | 1015.6 |
| 20260902063146 | 25 | 61 | 16.1 | 27.4 | 0.00 | 0.00 | 0.00 | 85 | 1015.5 |
| 20260902062645 | 25 | 87 | 11.3 | 24.1 | 0.00 | 0.00 | 0.00 | 85 | 1015.6 |
| 20260902062145 | 25 | 94 | 12.9 | 27.4 | 0.00 | 0.00 | 0.00 | 83 | 1015.5 |
| 20260902061915 | 25 | 66 | 14.5 | 27.4 | 0.00 | 0.00 | 0.00 | 84 | 1015.6 |
| 20260902061404 | 25 | 125 | 19.3 | 30.6 | 0.00 | 0.00 | 0.00 | 84 | 1015.6 |
| 20260902060903 | 25 | 82 | 9.7 | 30.6 | 0.00 | 0.00 | 0.00 | 83 | 1015.5 |
| 20260902060138 | 25 | 89 | 12.9 | 25.7 | 0.00 | 0.00 | 0.00 | 83 | 1015.4 |
| 20260902060132 | 26 | 87 | 16.1 | 25.7 | 0.00 | 0.00 | 0.00 | 84 | 1015.4 |
| 20260902055402 | 25 | 90 | 14.5 | 33.8 | 0.00 | 0.00 | 0.00 | 83 | 1015.4 |
| 20260902054632 | 25 | 77 | 17.7 | 33.8 | 0.00 | 0.00 | 0.00 | 83 | 1015.3 |
| 20260902054132 | 25 | 87 | 12.9 | 25.7 | 0.00 | 0.00 | 0.00 | 83 | 1015.4 |
| 20260902053902 | 25 | 65 | 11.3 | 27.4 | 0.00 | 0.00 | 0.00 | 85 | 1015.4 |
| 20260902053402 | 25 | 68 | 6.4 | 27.4 | 0.00 | 0.00 | 0.00 | 86 | 1015.2 |
| 20260902052631 | 25 | 70 | 8.0 | 32.2 | 0.00 | 0.00 | 0.00 | 86 | 1015.3 |
| 20260902052130 | 25 | 61 | 22.5 | 32.2 | 0.00 | 0.00 | 0.00 | 85 | 1015.3 |
| 20260902051901 | 25 | 62 | 14.5 | 30.6 | 0.00 | 0.00 | 0.00 | 85 | 1015.3 |
| 20260902051401 | 25 | 77 | 12.9 | 32.2 | 0.00 | 0.00 | 0.00 | 85 | 1015.1 |
| 20260902050629 | 24 | 71 | 9.7 | 32.2 | 0.00 | 0.00 | 0.00 | 85 | 1015.1 |
| 20260902050358 | 25 | 114 | 14.5 | 25.7 | 0.00 | 0.00 | 0.00 | 86 | 1015.2 |
| 20260902045627 | 25 | 91 | 12.9 | 27.4 | 0.00 | 0.00 | 0.00 | 87 | 1015.1 |
| 20260902045128 | 25 | 33 | 9.7 | 27.4 | 0.00 | 0.00 | 0.00 | 87 | 1015.2 |
| 20260902044627 | 25 | 86 | 12.9 | 37.0 | 0.00 | 0.00 | 0.00 | 86 | 1015.1 |
| 20260902044356 | 25 | 105 | 19.3 | 37.0 | 0.00 | 0.00 | 0.00 | 84 | 1015.0 |
| 20260902043626 | 25 | 58 | 22.5 | 32.2 | 0.00 | 0.00 | 0.00 | 82 | 1014.7 |
| 20260902043125 | 26 | 94 | 14.5 | 25.7 | 0.00 | 0.00 | 0.00 | 83 | 1014.8 |
| 20260902042857 | 26 | 55 | 8.0 | 25.7 | 0.00 | 0.00 | 0.00 | 82 | 1014.8 |
| 20260902042125 | 26 | 98 | 14.5 | 30.6 | 0.00 | 0.00 | 0.00 | 82 | 1014.7 |
| 20260902041624 | 26 | 78 | 12.9 | 30.6 | 0.00 | 0.00 | 0.00 | 81 | 1014.5 |
| 20260902041127 | 26 | 23 | 14.5 | 27.4 | 0.00 | 0.00 | 0.00 | 81 | 1014.8 |
| 20260902040625 | 26 | 108 | 11.3 | 24.1 | 0.00 | 0.00 | 0.00 | 80 | 1014.6 |
| 20260902040356 | 26 | 33 | 11.3 | 24.1 | 0.00 | 0.00 | 0.00 | 80 | 1014.8 |
| 20260902035626 | 25 | 90 | 6.4 | 24.1 | 0.00 | 0.00 | 0.00 | 79 | 1014.7 |
| 20260902035124 | 25 | 86 | 12.9 | 24.1 | 0.00 | 0.00 | 0.00 | 80 | 1014.8 |
| 20260902034626 | 25 | 86 | 11.3 | 27.4 | 0.00 | 0.00 | 0.00 | 80 | 1014.9 |
| 20260902034124 | 25 | 75 | 12.9 | 32.2 | 0.00 | 0.00 | 0.00 | 82 | 1015.1 |
| 20260902033624 | 25 | 73 | 22.5 | 37.0 | 0.00 | 0.00 | 0.00 | 82 | 1014.9 |
| 20260902033125 | 26 | 48 | 12.9 | 37.0 | 0.00 | 0.00 | 0.00 | 82 | 1015.1 |
| 20260902032625 | 26 | 80 | 20.9 | 33.8 | 0.00 | 0.00 | 0.00 | 79 | 1014.9 |
| 20260902032125 | 26 | 64 | 12.9 | 30.6 | 0.00 | 0.00 | 0.00 | 79 | 1015.3 |
| 20260902031625 | 26 | 76 | 16.1 | 24.1 | 0.00 | 0.00 | 0.00 | 78 | 1015.1 |
| 20260902031125 | 26 | 55 | 11.3 | 27.4 | 0.00 | 0.00 | 0.00 | 79 | 1015.2 |
| 20260902030624 | 26 | 76 | 16.1 | 27.4 | 0.00 | 0.00 | 0.00 | 80 | 1015.0 |
| 20260902030124 | 26 | 111 | 9.7 | 30.6 | 0.00 | 0.00 | 0.00 | 81 | 1015.3 |
| 20260902025856 | 26 | 88 | 19.3 | 33.8 | 0.00 | 0.00 | 0.00 | 80 | 1015.0 |
| 20260902025124 | 26 | 76 | 12.9 | 33.8 | 0.00 | 0.00 | 0.00 | 79 | 1015.0 |
| 20260902024626 | 27 | 84 | 17.7 | 33.8 | 0.00 | 0.00 | 0.00 | 79 | 1014.8 |
| 20260902024124 | 26 | 86 | 14.5 | 33.8 | 0.00 | 0.00 | 0.00 | 75 | 1014.8 |
| 20260902023613 | 27 | 110 | 17.7 | 30.6 | 0.00 | 0.00 | 0.00 | 77 | 1014.9 |
| 20260902023113 | 26 | 106 | 19.3 | 30.6 | 0.00 | 0.00 | 0.00 | 76 | 1014.9 |
| 20260902022613 | 27 | 73 | 16.1 | 30.6 | 0.00 | 0.00 | 0.00 | 78 | 1014.8 |
| 20260902022113 | 27 | 53 | 11.3 | 30.6 | 0.00 | 0.00 | 0.00 | 78 | 1014.7 |
| 20260902021613 | 27 | 79 | 12.9 | 32.2 | 0.00 | 0.00 | 0.00 | 77 | 1014.9 |
| 20260902021113 | 27 | 105 | 14.5 | 33.8 | 0.00 | 0.00 | 0.00 | 76 | 1014.9 |
| 20260902020613 | 27 | 35 | 14.5 | 33.8 | 0.00 | 0.00 | 0.00 | 78 | 1014.7 |
| 20260902020344 | 27 | 66 | 6.4 | 30.6 | 0.00 | 0.00 | 0.00 | 78 | 1014.9 |
| 20260902015613 | 27 | 75 | 9.7 | 33.8 | 0.00 | 0.00 | 0.00 | 79 | 1014.9 |
| 20260902015113 | 27 | 89 | 17.7 | 33.8 | 0.00 | 0.00 | 0.00 | 77 | 1014.9 |
| 20260902014613 | 27 | 58 | 14.5 | 30.6 | 0.00 | 0.00 | 0.00 | 77 | 1015.0 |
| 20260902014112 | 27 | 84 | 16.1 | 30.6 | 0.00 | 0.00 | 0.00 | 76 | 1015.1 |
| 20260902013843 | 27 | 108 | 14.5 | 30.6 | 0.00 | 0.00 | 0.00 | 77 | 1015.0 |
| 20260902013112 | 27 | 73 | 16.1 | 30.6 | 0.00 | 0.00 | 0.00 | 76 | 1015.0 |
| 20260902012612 | 27 | 78 | 22.5 | 33.8 | 0.00 | 0.00 | 0.00 | 76 | 1015.3 |
| 20260902012112 | 27 | 88 | 19.3 | 33.8 | 0.00 | 0.00 | 0.00 | 77 | 1015.0 |
| 20260902011611 | 27 | 64 | 14.5 | 45.1 | 0.00 | 0.00 | 0.00 | 75 | 1015.1 |
| 20260902011111 | 27 | 80 | 14.5 | 45.1 | 0.00 | 0.00 | 0.00 | 75 | 1014.9 |
| 20260902010611 | 27 | 82 | 14.5 | 32.2 | 0.00 | 0.00 | 0.00 | 76 | 1015.1 |
| 20260902010111 | 27 | 100 | 17.7 | 37.0 | 0.00 | 0.00 | 0.00 | 76 | 1015.0 |
| 20260902005612 | 27 | 84 | 22.5 | 37.0 | 0.00 | 0.00 | 0.00 | 76 | 1015.1 |
| 20260902005111 | 27 | 50 | 14.5 | 33.8 | 0.00 | 0.00 | 0.00 | 77 | 1015.2 |
| 20260902004612 | 27 | 47 | 12.9 | 33.8 | 0.00 | 0.00 | 0.00 | 75 | 1015.3 |
| 20260902004111 | 27 | 56 | 22.5 | 30.6 | 0.00 | 0.00 | 0.00 | 75 | 1015.4 |
| 20260902003612 | 27 | 54 | 16.1 | 30.6 | 0.00 | 0.00 | 0.00 | 76 | 1015.3 |
| 20260902003112 | 27 | 53 | 22.5 | 33.8 | 0.00 | 0.00 | 0.00 | 75 | 1015.2 |
| 20260902002612 | 27 | 76 | 17.7 | 38.6 | 0.00 | 0.00 | 0.00 | 75 | 1015.3 |
| 20260902002112 | 27 | 91 | 16.1 | 38.6 | 0.00 | 0.00 | 0.00 | 75 | 1015.3 |
| 20260902001600 | 27 | 49 | 11.3 | 33.8 | 0.00 | 0.00 | 0.00 | 76 | 1015.4 |
| 20260902001100 | 27 | 47 | 22.5 | 32.2 | 0.00 | 0.00 | 0.00 | 78 | 1015.4 |
| 20260902000600 | 27 | 83 | 19.3 | 30.6 | 0.00 | 0.00 | 0.00 | 78 | 1015.2 |
| 20260902000100 | 27 | 86 | 12.9 | 30.6 | 0.00 | 0.00 | 0.00 | 76 | 1015.2 |
| 20260901235600 | 27 | 63 | 19.3 | 30.6 | 0.00 | 0.00 | 0.00 | 79 | 1015.4 |
| 20260901235100 | 27 | 62 | 19.3 | 30.6 | 0.00 | 0.00 | 0.00 | 78 | 1015.5 |
| 20260901234600 | 28 | 41 | 16.1 | 30.6 | 0.00 | 0.00 | 0.00 | 77 | 1015.6 |
| 20260901234318 | 28 | 74 | 17.7 | 30.6 | 0.00 | 0.00 | 0.00 | 76 | 1015.6 |
| 20260901233549 | 28 | 82 | 17.7 | 27.4 | 0.00 | 0.00 | 0.00 | 75 | 1015.6 |
| 20260901233036 | 28 | 56 | 11.3 | 37.0 | 0.00 | 0.00 | 0.00 | 76 | 1015.6 |
| 20260901232807 | 28 | 69 | 19.3 | 37.0 | 0.00 | 0.00 | 0.00 | 74 | 1015.6 |
| 20260901232023 | 28 | 75 | 19.3 | 30.6 | 0.00 | 0.00 | 0.00 | 74 | 1015.7 |
| 20260901231524 | 28 | 53 | 14.5 | 32.2 | 0.00 | 0.00 | 0.00 | 76 | 1015.9 |
| 20260901231024 | 28 | 77 | 16.1 | 41.8 | 0.00 | 0.00 | 0.00 | 75 | 1015.8 |
| 20260901230523 | 28 | 77 | 19.3 | 41.8 | 0.00 | 0.00 | 0.00 | 73 | 1016.1 |
| 20260901230024 | 28 | 91 | 17.7 | 37.0 | 0.00 | 0.00 | 0.00 | 74 | 1015.9 |
| 20260901225524 | 28 | 76 | 14.5 | 37.0 | 0.00 | 0.00 | 0.00 | 74 | 1016.1 |
| 20260901225024 | 28 | 101 | 22.5 | 32.2 | 0.00 | 0.00 | 0.00 | 74 | 1016.1 |
| 20260901224755 | 28 | 104 | 14.5 | 33.8 | 0.00 | 0.00 | 0.00 | 74 | 1016.1 |
| 20260901224024 | 28 | 91 | 14.5 | 33.8 | 0.00 | 0.00 | 0.00 | 74 | 1016.1 |
| 20260901223524 | 28 | 69 | 14.5 | 37.0 | 0.00 | 0.00 | 0.00 | 75 | 1016.0 |
| 20260901223026 | 28 | 60 | 11.3 | 37.0 | 0.00 | 0.00 | 0.00 | 75 | 1016.1 |
| 20260901222523 | 28 | 30 | 12.9 | 33.8 | 0.00 | 0.00 | 0.00 | 74 | 1016.0 |
| 20260901222024 | 28 | 83 | 16.1 | 30.6 | 0.00 | 0.00 | 0.00 | 75 | 1016.0 |
| 20260901221755 | 27 | 102 | 12.9 | 30.6 | 0.00 | 0.00 | 0.00 | 76 | 1016.1 |
| 20260901221629 | 27 | 36 | 9.7 | 30.6 | 0.00 | 0.00 | 0.00 | 75 | 1016.2 |
| 20260901220523 | 28 | 67 | 17.7 | 37.0 | 0.00 | 0.00 | 0.00 | 76 | 1016.2 |
| 20260901220255 | 27 | 64 | 19.3 | 37.0 | 0.00 | 0.00 | 0.00 | 75 | 1016.5 |
| 20260901215518 | 27 | 83 | 17.7 | 33.8 | 0.00 | 0.00 | 0.00 | 77 | 1016.4 |
| 20260901215012 | 27 | 58 | 9.7 | 38.6 | 0.00 | 0.00 | 0.00 | 76 | 1016.4 |
| 20260901214511 | 28 | 78 | 11.3 | 38.6 | 0.00 | 0.00 | 0.00 | 76 | 1016.6 |
| 20260901214011 | 27 | 28 | 14.5 | 30.6 | 0.00 | 0.00 | 0.00 | 77 | 1016.3 |
| 20260901213512 | 27 | 57 | 19.3 | 27.4 | 0.00 | 0.00 | 0.00 | 78 | 1016.7 |
| 20260901213011 | 27 | 44 | 9.7 | 32.2 | 0.00 | 0.00 | 0.00 | 77 | 1016.5 |
| 20260901212512 | 27 | 58 | 14.5 | 32.2 | 0.00 | 0.00 | 0.00 | 78 | 1016.6 |
| 20260901212243 | 27 | 33 | 22.5 | 30.6 | 0.00 | 0.00 | 0.00 | 77 | 1016.7 |
| 20260901211511 | 27 | 95 | 16.1 | 30.6 | 0.00 | 0.00 | 0.00 | 77 | 1016.7 |
| 20260901211011 | 27 | 27 | 16.1 | 30.6 | 0.00 | 0.00 | 0.00 | 77 | 1016.7 |
| 20260901210512 | 27 | 82 | 14.5 | 30.6 | 0.00 | 0.00 | 0.00 | 76 | 1016.9 |
| 20260901210243 | 27 | 56 | 17.7 | 27.4 | 0.00 | 0.00 | 0.00 | 75 | 1016.8 |
| 20260901205518 | 27 | 76 | 11.3 | 25.7 | 0.00 | 0.00 | 0.00 | 76 | 1016.9 |
| 20260901205512 | 27 | 41 | 12.9 | 27.4 | 0.00 | 0.00 | 0.00 | 77 | 1016.5 |
| 20260901204512 | 27 | 41 | 14.5 | 27.4 | 0.00 | 0.00 | 0.00 | 76 | 1016.9 |
| 20260901204012 | 28 | 67 | 9.7 | 27.4 | 0.00 | 0.00 | 0.00 | 76 | 1016.8 |
| 20260901203518 | 27 | 106 | 6.4 | 24.1 | 0.00 | 0.00 | 0.00 | 75 | 1016.8 |
| 20260901203511 | 28 | 49 | 14.5 | 25.7 | 0.00 | 0.00 | 0.00 | 75 | 1016.9 |
| 20260901202511 | 27 | 112 | 12.9 | 24.1 | 0.00 | 0.00 | 0.00 | 76 | 1016.8 |
| 20260901202011 | 27 | 43 | 12.9 | 27.4 | 0.00 | 0.00 | 0.00 | 76 | 1017.0 |
| 20260901201742 | 27 | 110 | 14.5 | 27.4 | 0.00 | 0.00 | 0.00 | 74 | 1016.9 |
| 20260901201011 | 27 | 66 | 9.7 | 25.7 | 0.00 | 0.00 | 0.00 | 74 | 1016.8 |
| 20260901200511 | 27 | 69 | 12.9 | 25.7 | 0.00 | 0.00 | 0.00 | 75 | 1017.0 |
| 20260901200011 | 27 | 57 | 8.0 | 30.6 | 0.00 | 0.00 | 0.00 | 74 | 1017.3 |
| 20260901195511 | 27 | 89 | 16.1 | 30.6 | 0.00 | 0.00 | 0.00 | 75 | 1017.1 |
| 20260901195011 | 27 | 126 | 8.0 | 25.7 | 0.00 | 0.00 | 0.00 | 76 | 1016.9 |
| 20260901194511 | 27 | 85 | 9.7 | 25.7 | 0.00 | 0.00 | 0.00 | 76 | 1016.9 |
| 20260901194011 | 27 | 82 | 16.1 | 24.1 | 0.00 | 0.00 | 0.00 | 75 | 1016.9 |
| 20260901193511 | 27 | 118 | 4.8 | 30.6 | 0.00 | 0.00 | 0.00 | 74 | 1017.2 |
| 20260901193012 | 27 | 104 | 17.7 | 30.6 | 0.00 | 0.00 | 0.00 | 75 | 1017.1 |
| 20260901192512 | 27 | 77 | 16.1 | 24.1 | 0.00 | 0.00 | 0.00 | 75 | 1017.2 |
| 20260901192012 | 26 | 38 | 9.7 | 27.4 | 0.00 | 0.00 | 0.00 | 76 | 1017.1 |
| 20260901191512 | 26 | 82 | 12.9 | 27.4 | 0.00 | 0.00 | 0.00 | 75 | 1017.1 |
| 20260901191012 | 27 | 76 | 9.7 | 24.1 | 0.00 | 0.00 | 0.00 | 74 | 1017.1 |
| 20260901190512 | 27 | 67 | 11.3 | 30.6 | 0.00 | 0.00 | 0.00 | 76 | 1017.0 |
| 20260901190012 | 26 | 62 | 14.5 | 30.6 | 0.00 | 0.00 | 0.00 | 75 | 1017.2 |
| 20260901185514 | 26 | 89 | 11.3 | 24.1 | 0.00 | 0.00 | 0.00 | 78 | 1017.0 |